{"data":{"norad_id":66733,"epoch":"2026-05-25T04:10:00.259968Z","epoch_age_seconds":53839,"freshness":"FRESH","line1":"1 66733U 25276BV  26145.17361412  .00005784  00000+0  27538-3 0  9991","line2":"2 66733  97.4236 219.1390 0005951  94.3753 265.8162 15.19517063 26921","mean_motion":15.19517063,"eccentricity":0.0005951,"inclination_deg":97.4236,"raan_deg":219.139,"arg_perigee_deg":94.3753,"mean_anomaly_deg":265.8162,"bstar":0.00027538,"rev_number":2692,"period_min":94.766951623234,"perigee_km":503.20160297285,"apogee_km":511.39664905003,"semimajor_km":6885.4361260114,"source":"CELESTRAK","updated_at":"2026-05-25T13:38:13.373140Z"}}